Weather History for Perryton, TX

Change the Weather History Date:

Thursday, February 20, 2014

  Actual Average Record
Temperature  
Mean Temperature 39 °F -  
Max Temperature 55 °F 54 °F 79 °F (1986)
Min Temperature 23 °F 25 °F 10 °F (1975)
Degree Days  
Heating Degree Days 26    
Moisture  
Dew Point 18 °F    
Average Humidity 43    
Maximum Humidity 83    
Minimum Humidity 19    
Precipitation  
Precipitation 0.00 in - - ()
Sea Level Pressure  
Sea Level Pressure 29.85 in    
Wind  
Wind Speed 23 mph (NW)    
Max Wind Speed 46 mph    
Max Gust Speed 62 mph    
Visibility 9 miles    
Events      
Averages and records for this station are not official NWS values.
T = Trace of Precipitation, MM = Missing Value Source: NWS Daily Summary

Daily Weather History Graph

Daily Weather History Graph

Search for Another Location

Airport:

Trip Planner

Search our weather history database for the weather conditions in past years. The results will help you decide how hot, cold, wet, or windy it might be!

Date:

Astronomy

Feb. 20, 2014 Rise Set
Actual Time 7:24 AM CST 6:29 PM CST
Civil Twilight 6:58 AM CST 6:55 PM CST
Nautical Twilight 6:28 AM CST 7:25 PM CST
Astronomical Twilight 5:58 AM CST 7:55 PM CST
Moon No Moon Rise 10:19 AM CST (2/20)
Length of Visible Light 11h 56m
Length of Day
11h 04m
Waning Gibbous, 70% of the Moon is Illuminated
Feb 20
Waning Gibbous
Feb 22
Last Quarter
Mar 1
New
Mar 8
First Quarter
Mar 16
Full

Hourly Weather History & Observations

Time (CST) Temp. Windchill Dew Point Humidity Pressure Visibility Wind Dir Wind Speed Gust Speed Precip Events Conditions
12:15 AM 53.6 °F - 23.9 °F 32% 29.39 in 10.0 mi SSW 15.0 mph - N/A   Clear
12:35 AM 53.8 °F - 23.5 °F 31% 29.38 in 10.0 mi SSW 13.8 mph - N/A   Clear
12:55 AM 53.6 °F - 22.8 °F 30% 29.37 in 10.0 mi SSW 16.1 mph - N/A   Clear
1:15 AM 52.7 °F - 22.1 °F 30% 29.41 in 10.0 mi West 17.3 mph 24.2 mph N/A   Clear
1:35 AM 54.5 °F - 20.3 °F 26% 29.40 in 10.0 mi WSW 19.6 mph - N/A   Clear
1:55 AM 55.4 °F - 19.9 °F 25% 29.41 in 10.0 mi WSW 21.9 mph 28.8 mph N/A   Clear
2:15 AM 54.3 °F - 20.8 °F 27% 29.41 in 10.0 mi WSW 18.4 mph - N/A   Scattered Clouds
2:35 AM 55.0 °F - 22.6 °F 28% 29.43 in 10.0 mi West 25.3 mph 31.1 mph N/A   Scattered Clouds
2:55 AM 55.6 °F - 24.4 °F 30% 29.43 in 7.0 mi West 25.3 mph 33.4 mph N/A   Mostly Cloudy
3:15 AM 54.9 °F - 30.7 °F 40% 29.45 in 3.0 mi WNW 27.6 mph 43.7 mph N/A   Overcast
3:35 AM 51.8 °F - 29.8 °F 43% 29.48 in 5.0 mi WNW 28.8 mph 44.9 mph N/A   Overcast
3:55 AM 47.8 °F - 33.4 °F 57% 29.50 in 2.5 mi NW 42.6 mph 52.9 mph N/A   Overcast
4:15 AM 43.0 °F 30.8 °F 32.0 °F 65% 29.53 in 2.0 mi NW 42.6 mph 55.2 mph N/A   Overcast
4:35 AM 41.4 °F 29.5 °F 31.6 °F 68% 29.55 in 2.5 mi NW 35.7 mph 62.1 mph N/A   Overcast
4:55 AM 40.1 °F 26.3 °F 30.7 °F 69% 29.59 in 4.0 mi NW 46.0 mph 54.1 mph N/A   Overcast
5:15 AM 38.5 °F 24.8 °F 30.2 °F 72% 29.62 in 3.0 mi NW 40.3 mph 54.1 mph N/A   Overcast
5:35 AM 36.7 °F 22.1 °F 29.3 °F 75% 29.65 in 4.0 mi NNW 41.4 mph 52.9 mph N/A   Overcast
5:55 AM 36.9 °F 21.8 °F 28.8 °F 72% 29.70 in 3.0 mi NNW 46.0 mph 56.4 mph N/A   Overcast
6:15 AM 36.5 °F 21.7 °F 28.8 °F 74% 29.73 in 4.0 mi NNW 42.6 mph 62.1 mph N/A   Overcast
6:35 AM 35.6 °F 20.8 °F 29.3 °F 78% 29.75 in 7.0 mi NNW 40.3 mph 49.5 mph N/A   Overcast
6:55 AM 34.7 °F 20.7 °F 30.0 °F 83% 29.76 in 10.0 mi NNW 33.4 mph 43.7 mph N/A   Overcast
7:15 AM 34.7 °F 20.5 °F 29.7 °F 82% 29.78 in 10.0 mi NNW 34.5 mph 43.7 mph N/A   Overcast
7:35 AM 34.0 °F 20.8 °F 28.4 °F 80% 29.81 in 10.0 mi NNW 27.6 mph 35.7 mph N/A   Scattered Clouds
7:55 AM 34.2 °F 21.5 °F 28.4 °F 79% 29.82 in 10.0 mi NNW 25.3 mph 31.1 mph N/A   Mostly Cloudy
8:15 AM 35.2 °F 22.3 °F 28.4 °F 76% 29.85 in 10.0 mi NNW 28.8 mph 38.0 mph N/A   Overcast
8:35 AM 35.2 °F 22.7 °F 28.4 °F 76% 29.87 in 10.0 mi NNW 26.5 mph 39.1 mph N/A   Overcast
8:55 AM 36.1 °F 23.0 °F 28.2 °F 73% 29.88 in 10.0 mi North 31.1 mph 41.4 mph N/A   Overcast
9:15 AM 36.9 °F 24.7 °F 27.5 °F 69% 29.89 in 10.0 mi North 27.6 mph 34.5 mph N/A   Scattered Clouds
9:35 AM 37.4 °F 25.2 °F 27.3 °F 67% 29.90 in 10.0 mi NNW 28.8 mph 36.8 mph N/A   Scattered Clouds
9:55 AM 38.8 °F 26.7 °F 27.1 °F 63% 29.92 in 10.0 mi NW 31.1 mph 35.7 mph N/A   Clear
10:15 AM 40.3 °F 29.9 °F 26.6 °F 58% 29.93 in 10.0 mi NNW 24.2 mph 34.5 mph N/A   Clear
10:35 AM 41.9 °F 31.5 °F 25.7 °F 53% 29.95 in 10.0 mi NNW 27.6 mph 36.8 mph N/A   Clear
10:55 AM 42.6 °F 32.4 °F 24.3 °F 48% 29.96 in 10.0 mi NW 27.6 mph 33.4 mph N/A   Clear
11:15 AM 44.1 °F 34.6 °F 22.1 °F 42% 29.96 in 10.0 mi NW 26.5 mph 31.1 mph N/A   Clear
11:35 AM 45.5 °F 36.5 °F 17.8 °F 33% 29.96 in 10.0 mi NNW 26.5 mph 33.4 mph N/A   Clear
11:55 AM 46.9 °F - 14.5 °F 27% 29.96 in 10.0 mi NNW 31.1 mph 39.1 mph N/A   Clear
12:15 PM 47.3 °F - 11.8 °F 24% 29.97 in 10.0 mi NNW 25.3 mph 38.0 mph N/A   Clear
12:35 PM 48.0 °F - 11.1 °F 23% 29.96 in 10.0 mi NNW 27.6 mph 34.5 mph N/A   Clear
12:55 PM 48.2 °F - 10.6 °F 22% 29.97 in 10.0 mi NNW 28.8 mph 36.8 mph N/A   Clear
1:15 PM 49.3 °F - 9.5 °F 20% 29.97 in 10.0 mi NW 32.2 mph 36.8 mph N/A   Scattered Clouds
1:35 PM 49.6 °F - 10.2 °F 20% 29.97 in 10.0 mi NW 32.2 mph 38.0 mph N/A   Scattered Clouds
1:55 PM 49.5 °F - 8.6 °F 19% 29.98 in 10.0 mi NW 32.2 mph 41.4 mph N/A   Scattered Clouds
2:15 PM 48.6 °F - 9.1 °F 20% 29.98 in 10.0 mi NW 29.9 mph 34.5 mph N/A   Mostly Cloudy
2:35 PM 48.9 °F - 8.1 °F 19% 29.99 in 10.0 mi NW 32.2 mph 39.1 mph N/A   Scattered Clouds
2:55 PM 47.8 °F - 7.9 °F 20% 29.99 in 10.0 mi NW 31.1 mph 39.1 mph N/A   Scattered Clouds
3:15 PM 49.3 °F - 9.0 °F 20% 29.99 in 10.0 mi NW 27.6 mph 35.7 mph N/A   Mostly Cloudy
3:35 PM 47.8 °F - 14.5 °F 26% 30.00 in 10.0 mi NNW 26.5 mph 38.0 mph N/A   Scattered Clouds
3:55 PM 47.1 °F - 12.2 °F 25% 30.00 in 10.0 mi NW 20.7 mph 32.2 mph N/A   Mostly Cloudy
4:15 PM 47.5 °F - 10.4 °F 22% 30.01 in 10.0 mi NNW 25.3 mph 33.4 mph N/A   Mostly Cloudy
4:35 PM 47.3 °F - 10.0 °F 22% 30.01 in 10.0 mi NW 23.0 mph 27.6 mph N/A   Scattered Clouds
4:55 PM 46.0 °F 37.4 °F 9.9 °F 23% 30.00 in 10.0 mi NNW 25.3 mph 29.9 mph N/A   Scattered Clouds
5:15 PM 46.4 °F 39.0 °F 8.4 °F 21% 30.02 in 10.0 mi NW 19.6 mph - N/A   Scattered Clouds
5:35 PM 45.7 °F 38.0 °F 7.3 °F 21% 30.02 in 10.0 mi NW 19.6 mph 27.6 mph N/A   Scattered Clouds
5:55 PM 45.3 °F 38.4 °F 7.5 °F 21% 30.02 in 10.0 mi NNW 16.1 mph 23.0 mph N/A   Scattered Clouds
6:15 PM 43.3 °F 37.7 °F 9.3 °F 25% 30.03 in 10.0 mi NNW 10.4 mph - N/A   Clear
6:35 PM 41.0 °F 35.8 °F 8.1 °F 26% 30.03 in 10.0 mi NNW 8.1 mph - N/A   Clear
6:55 PM 37.4 °F 31.4 °F 8.6 °F 30% 30.03 in 10.0 mi NNW 8.1 mph - N/A   Clear
7:15 PM 34.5 °F 27.9 °F 8.4 °F 34% 30.04 in 10.0 mi NNW 8.1 mph - N/A   Clear
7:35 PM 32.9 °F 25.9 °F 8.4 °F 36% 30.05 in 10.0 mi NW 8.1 mph - N/A   Clear
7:55 PM 32.4 °F 24.6 °F 7.9 °F 36% 30.05 in 10.0 mi NW 9.2 mph - N/A   Clear
8:15 PM 32.0 °F 23.6 °F 8.4 °F 37% 30.05 in 10.0 mi NW 10.4 mph - N/A   Clear
8:35 PM 31.1 °F 23.1 °F 9.0 °F 40% 30.05 in 10.0 mi NW 9.2 mph - N/A   Clear
8:55 PM 29.8 °F 22.2 °F 9.5 °F 43% 30.06 in 10.0 mi NW 8.1 mph - N/A   Clear
9:15 PM 28.9 °F 21.9 °F 10.2 °F 46% 30.06 in 10.0 mi WNW 6.9 mph - N/A   Clear
9:35 PM 28.4 °F 20.4 °F 10.4 °F 47% 30.06 in 10.0 mi West 8.1 mph - N/A   Clear
9:55 PM 27.9 °F 20.6 °F 10.2 °F 48% 30.07 in 10.0 mi WNW 6.9 mph - N/A   Clear
10:15 PM 26.6 °F 19.1 °F 10.4 °F 51% 30.06 in 10.0 mi WNW 6.9 mph - N/A   Clear
10:35 PM 25.9 °F 18.2 °F 10.4 °F 52% 30.07 in 10.0 mi WNW 6.9 mph - N/A   Clear
10:55 PM 25.7 °F 19.0 °F 10.2 °F 52% 30.06 in 10.0 mi West 5.8 mph - N/A   Clear
11:15 PM 29.5 °F 22.5 °F 10.2 °F 45% 30.06 in 10.0 mi WNW 6.9 mph - N/A   Clear
11:35 PM 23.7 °F 17.8 °F 9.9 °F 56% 30.06 in 10.0 mi West 4.6 mph - N/A   Clear
11:55 PM 24.6 °F 18.8 °F 10.0 °F 54% 30.06 in 10.0 mi West 4.6 mph - N/A   Clear